FW3040 Weather Reports


Display with metric or nautical units.
time (UTC)temp
F
wind
direction
speed
MPH
gust
MPH
rain 1hr
in
rain 24hr
in
rain mn
in
humidity
%
barometer
mb
20260506101729 63 225 0.0 0.0 0.00 0.00 0.00 90 1017.3
20260506095826 62 258 1.0 2.0 0.00 0.00 0.00 90 1017.3
20260506094842 62 247 0.0 0.0 0.00 0.00 0.00 90 1017.3
20260506093926 62 247 0.0 0.0 0.00 0.00 0.00 90 1017.5
20260506093026 62 225 0.0 0.0 0.00 0.00 0.00 89 1017.5
20260506092027 63 247 0.0 0.0 0.00 0.00 0.00 89 1017.7
20260506090027 63 259 0.0 1.0 0.00 0.00 0.00 89 1017.8
20260506084025 63 252 1.0 2.0 0.00 0.00 0.00 89 1017.7
20260506082027 63 225 0.0 0.0 0.00 0.00 0.00 89 1017.6
20260506080141 63 255 1.0 2.0 0.00 0.00 0.00 89 1017.3
20260506072126 63 225 0.0 0.0 0.00 0.00 0.00 87 1017.5
20260506071126 63 90 0.0 0.0 0.00 0.00 0.00 87 1017.4
20260506070142 63 270 0.0 0.0 0.00 0.00 0.00 87 1017.6
20260506062427 64 223 2.0 4.0 0.00 0.00 0.00 86 1017.9
20260506061428 64 247 1.0 2.0 0.00 0.00 0.00 86 1018.2
20260506060442 64 246 3.0 4.0 0.00 0.00 0.00 86 1018.2
20260506044626 64 307 0.0 1.0 0.00 0.00 0.00 85 1018.8
20260506043644 65 227 1.0 4.0 0.00 0.00 0.00 84 1018.9
20260506043525 65 247 1.0 4.0 0.00 0.00 0.00 84 1018.9
20260506042527 65 233 1.0 5.0 0.00 0.00 0.00 84 1019.0
20260506035528 65 236 3.0 7.0 0.00 0.00 0.00 83 1018.9
20260506034529 65 248 2.0 6.0 0.00 0.00 0.00 83 1018.8
20260506033529 65 240 2.0 6.0 0.00 0.00 0.00 82 1018.8
20260506030529 65 240 2.0 3.0 0.00 0.00 0.00 80 1018.9
20260506024630 66 228 2.0 5.0 0.00 0.00 0.00 77 1018.9
20260506023631 66 235 2.0 5.0 0.00 0.00 0.00 76 1018.8
20260506023531 66 263 2.0 6.0 0.00 0.00 0.00 75 1018.9
20260506022629 66 233 2.0 5.0 0.00 0.00 0.00 74 1018.8
20260506021632 67 228 0.0 2.0 0.00 0.00 0.00 74 1018.8
20260506020631 67 246 4.0 9.0 0.00 0.00 0.00 73 1018.7
20260506015630 67 252 3.0 7.0 0.00 0.00 0.00 73 1018.8
20260506014729 67 229 1.0 3.0 0.00 0.00 0.00 73 1018.7
20260506013732 67 247 3.0 6.0 0.00 0.00 0.00 72 1018.6
20260506013629 67 259 3.0 8.0 0.00 0.00 0.00 72 1018.4
20260506011630 68 246 0.0 2.0 0.00 0.00 0.00 71 1018.4
20260506005632 68 225 1.0 3.0 0.00 0.00 0.00 67 1018.3
20260506004728 69 279 2.0 4.0 0.00 0.00 0.00 67 1017.9
20260506003730 69 229 3.0 6.0 0.00 0.00 0.00 68 1018.0
20260506002728 69 231 2.0 6.0 0.00 0.00 0.00 68 1018.0
20260506001731 69 223 4.0 7.0 0.00 0.00 0.00 68 1017.9
20260506000730 70 212 3.0 8.0 0.00 0.00 0.00 66 1017.9
20260505235730 70 233 3.0 7.0 0.00 0.00 0.00 65 1017.6
20260505234732 70 235 3.0 8.0 0.00 0.00 0.00 64 1017.5
20260505233729 71 243 1.0 4.0 0.00 0.00 0.00 63 1017.3
20260505232730 72 321 0.0 3.0 0.00 0.00 0.00 61 1017.4
20260505231731 72 321 2.0 5.0 0.00 0.00 0.00 61 1017.2
20260505225731 73 228 5.0 9.0 0.00 0.00 0.00 59 1017.0
20260505224728 73 210 3.0 8.0 0.00 0.00 0.00 60 1017.1
20260505223731 74 209 2.0 5.0 0.00 0.00 0.00 60 1017.1
20260505222728 74 262 3.0 7.0 0.00 0.00 0.00 60 1017.2
20260505221745 74 250 2.0 5.0 0.00 0.00 0.00 59 1017.1
20260505214830 76 206 3.0 7.0 0.00 0.00 0.00 55 1016.8
20260505213846 77 227 3.0 9.0 0.00 0.00 0.00 54 1016.9
20260505211830 78 206 6.0 10.0 0.00 0.00 0.00 52 1016.8
20260505210832 78 228 4.0 8.0 0.00 0.00 0.00 51 1016.8
20260505205829 79 212 3.0 11.0 0.00 0.00 0.00 50 1016.8
20260505204830 79 227 4.0 9.0 0.00 0.00 0.00 49 1016.7
20260505203829 78 229 3.0 5.0 0.00 0.00 0.00 48 1016.8
20260505202928 79 233 3.0 7.0 0.00 0.00 0.00 47 1017.0
20260505201930 79 250 6.0 10.0 0.00 0.00 0.00 47 1017.0
20260505195930 79 246 4.0 11.0 0.00 0.00 0.00 44 1017.4
20260505193929 80 234 3.0 7.0 0.00 0.00 0.00 45 1017.5
20260505193029 79 245 4.0 10.0 0.00 0.00 0.00 44 1017.7
20260505192030 79 222 2.0 6.0 0.00 0.00 0.00 45 1017.8
20260505191032 79 255 4.0 12.0 0.00 0.00 0.00 45 1018.0
20260505190128 79 189 4.0 10.0 0.00 0.00 0.00 46 1018.0
20260505190029 79 248 4.0 10.0 0.00 0.00 0.00 46 1018.1
20260505184129 79 240 8.0 14.0 0.00 0.00 0.00 47 1018.2
20260505183132 78 213 2.0 8.0 0.00 0.00 0.00 47 1018.2
20260505182128 79 207 2.0 7.0 0.00 0.00 0.00 47 1018.1
20260505181130 79 253 8.0 15.0 0.00 0.00 0.00 47 1018.1
20260505180229 79 215 1.0 4.0 0.00 0.00 0.00 46 1018.3
20260505175230 78 173 2.0 8.0 0.00 0.00 0.00 45 1018.3
20260505174230 78 185 2.0 6.0 0.00 0.00 0.00 46 1018.3
20260505173228 78 248 4.0 12.0 0.00 0.00 0.00 47 1018.6
20260505172229 77 279 1.0 8.0 0.00 0.00 0.00 48 1018.7
20260505171229 77 248 5.0 15.0 0.00 0.00 0.00 48 1018.7
20260505170231 76 251 6.0 11.0 0.00 0.00 0.00 49 1019.0
20260505165230 77 236 10.0 14.0 0.00 0.00 0.00 48 1018.9
20260505163231 76 244 4.0 9.0 0.00 0.00 0.00 49 1019.1
20260505162229 76 248 11.0 16.0 0.00 0.00 0.00 48 1019.1
20260505161230 75 233 5.0 7.0 0.00 0.00 0.00 50 1019.4
20260505160231 75 247 9.0 12.0 0.00 0.00 0.00 50 1019.3
20260505153230 73 233 7.0 10.0 0.00 0.00 0.00 53 1019.5
20260505152232 74 237 8.0 13.0 0.00 0.00 0.00 54 1019.6
20260505151231 73 241 6.0 9.0 0.00 0.00 0.00 54 1019.8
20260505150230 72 236 5.0 8.0 0.00 0.00 0.00 55 1019.7
20260505150128 73 235 7.0 11.0 0.00 0.00 0.00 56 1019.5
20260505140229 69 246 9.0 14.0 0.00 0.00 0.00 62 1019.6
20260505130230 66 244 9.0 14.0 0.00 0.00 0.00 70 1019.9
20260505124231 64 238 5.0 9.0 0.00 0.00 0.00 73 1019.8
20260505123329 64 235 7.0 10.0 0.00 0.00 0.00 74 1019.9
20260505122329 63 239 8.0 12.0 0.00 0.00 0.00 76 1019.8
20260505121331 62 243 5.0 7.0 0.00 0.00 0.00 77 1019.9
20260505120332 62 247 6.0 8.0 0.00 0.00 0.00 77 1020.0
20260505115330 61 248 5.0 8.0 0.00 0.00 0.00 79 1019.8
20260505114330 60 243 8.0 10.0 0.00 0.00 0.00 80 1019.8
20260505113331 60 254 4.0 6.0 0.00 0.00 0.00 81 1019.7
20260505112331 60 247 2.0 5.0 0.00 0.00 0.00 81 1019.8
20260505111329 59 247 2.0 5.0 0.00 0.00 0.00 82 1019.7
20260505110331 59 248 3.0 6.0 0.00 0.00 0.00 82 1019.3